sat.trackr.live / text

‹ back to catalog

YAOGAN-36 01A

NORAD 53943 · 2022-120A

PAYLOAD ACTIVE UNKNOWN

§ Identity

Operator
Country
PRC
Launch date
2022-09-26
Launch site
XICLF
Launch vehicle
Mass (kg)
RCS (m²)

External: N2YO · Heavens-Above · Gunter

§ Orbital elements

Epoch: 2026-09-20T19:50:39.591168Z

Period
94.43 min
Inclination
34.9911°
Eccentricity
0.0004294
Mean motion
15.24965050 rev/d
Perigee alt
487.9 km
Apogee alt
493.8 km
Semi-major
6,869.0 km
B*
2.5020e-4
RAAN
42.0099°
Arg perigee
135.6867°
Mean anomaly
224.4192°
Rev number
22,191

§ Raw data

YAOGAN-36 01A1 53943U 22120A   26263.82684712  .00006361  00000+0  25020-3 0  99952 53943  34.9911  42.0099 0004294 135.6867 224.4192 15.24965050221918

JSON: /api/v1/satellites/53943 · /tle

For live sub-satellite position, see the globe view (requires WebGL).

§ Visibility from observer

Set your observer location to see the next 7 days of passes ≥ 10°. The values pass through the URL so the page stays shareable.

No JS? Fill the form by hand. The geolocation button needs JavaScript.